Weather History for Meridian NAS, MS

Change the Weather History Date:

Saturday, January 19, 2013

  Actual Average Record
Temperature  
Mean Temperature 44 °F -  
Max Temperature 59 °F 55 °F 71 °F (1999)
Min Temperature 28 °F 35 °F 22 °F (1997)
Degree Days  
Heating Degree Days 22    
Moisture  
Dew Point 33 °F    
Average Humidity 74    
Maximum Humidity 96    
Minimum Humidity 41    
Precipitation  
Precipitation 0.00 in - - ()
Sea Level Pressure  
Sea Level Pressure 30.37 in    
Wind  
Wind Speed 2 mph (South)    
Max Wind Speed 7 mph    
Max Gust Speed -    
Visibility 10 miles    
Events      
Averages and records for this station are not official NWS values.
T = Trace of Precipitation, MM = Missing Value Source: NWS Daily Summary

Daily Weather History Graph

Daily Weather History Graph

Search for Another Location

Airport:

Trip Planner

Search our weather history database for the weather conditions in past years. The results will help you decide how hot, cold, wet, or windy it might be!

Date:

Astronomy

Jan. 19, 2013 Rise Set
Actual Time 6:55 AM CST 5:15 PM CST
Civil Twilight 6:28 AM CST 5:41 PM CST
Nautical Twilight 5:58 AM CST 6:11 PM CST
Astronomical Twilight 5:29 AM CST 6:41 PM CST
Moon 11:37 AM CST (1/19) 12:34 AM CST (1/19)
Length of Visible Light 11h 13m
Length of Day
10h 20m
First Quarter, 57% of the Moon is Illuminated
Jan 19
First Quarter
Jan 26
Full
Feb 3
Last Quarter
Feb 10
New
Feb 17
First Quarter

Hourly Weather History & Observations

Time (CST) Temp. Windchill Dew Point Humidity Pressure Visibility Wind Dir Wind Speed Gust Speed Precip Events Conditions
12:56 AM 30.0 °F 26.5 °F 28.0 °F 92% 30.45 in 10.0 mi NNW 3.5 mph - N/A   Clear
1:56 AM 28.9 °F - 27.0 °F 92% 30.45 in 9.0 mi Calm Calm - N/A   Clear
2:56 AM 28.9 °F - 27.0 °F 92% 30.45 in 10.0 mi Calm Calm - N/A   Clear
3:56 AM 28.0 °F - 26.1 °F 92% 30.44 in 10.0 mi Calm Calm - N/A   Clear
4:56 AM 28.0 °F - 25.0 °F 88% 30.43 in 10.0 mi Calm Calm - N/A   Clear
5:56 AM 28.0 °F - 25.0 °F 88% 30.43 in 10.0 mi Calm Calm - N/A   Clear
6:56 AM 28.0 °F - 25.0 °F 88% 30.44 in 10.0 mi Calm Calm - N/A   Clear
7:56 AM 30.0 °F - 28.0 °F 92% 30.45 in 10.0 mi Calm Calm - N/A   Clear
8:56 AM 37.9 °F 35.5 °F 34.0 °F 86% 30.45 in 10.0 mi SE 3.5 mph - N/A   Clear
9:56 AM 48.0 °F - 36.0 °F 63% 30.45 in 10.0 mi SE 5.8 mph - N/A   Clear
10:56 AM 53.1 °F - 34.0 °F 48% 30.42 in 10.0 mi SE 4.6 mph - N/A   Clear
11:56 AM 57.9 °F - 34.0 °F 41% 30.38 in 10.0 mi SW 6.9 mph - N/A   Clear
12:56 PM 59.0 °F - 35.1 °F 41% 30.33 in 10.0 mi Variable 3.5 mph - N/A   Clear
1:56 PM 57.9 °F - 35.1 °F 42% 30.32 in 10.0 mi South 6.9 mph - N/A   Clear
2:56 PM 57.9 °F - 34.0 °F 41% 30.30 in 10.0 mi SSW 3.5 mph - N/A   Clear
3:56 PM 57.9 °F - 34.0 °F 41% 30.30 in 10.0 mi Calm Calm - N/A   Clear
4:56 PM 55.0 °F - 37.0 °F 51% 30.30 in 10.0 mi Calm Calm - N/A   Clear
5:56 PM 50.0 °F - 37.9 °F 63% 30.30 in 10.0 mi Calm Calm - N/A   Clear
6:56 PM 46.0 °F - 39.9 °F 79% 30.31 in 10.0 mi Calm Calm - N/A   Clear
7:56 PM 43.0 °F 41.3 °F 37.9 °F 82% 30.31 in 10.0 mi NNW 3.5 mph - N/A   Clear
8:56 PM 41.0 °F - 37.9 °F 89% 30.31 in 10.0 mi Calm Calm - N/A   Clear
9:56 PM 39.9 °F - 37.0 °F 89% 30.30 in 10.0 mi Calm Calm - N/A   Clear
10:56 PM 39.9 °F - 37.0 °F 89% 30.28 in 10.0 mi Calm Calm - N/A   Clear
11:56 PM 37.0 °F - 36.0 °F 96% 30.28 in 10.0 mi Calm Calm - N/A   Clear